User: anonymous   Login
Location: Liberec
(50.7830°N, 15.0500°E)
Time: 02:41:08
(UTC+01:00)
Language:

ISS - Orbit

View from above orbital plane
View from above orbital plane
View from above satellite
View from above satellite

Ground track
Ground track

The orbit data is extracted from the following two-line orbital elements,

1 25544U 98067A   20299.86455766  .00001441  00000-0  33928-4 0  9998
2 25544  51.6451  61.8678 0001693  61.1977  82.9655 15.49334095252276
Epoch (UTC): 25 October 2020 20:44:57
Eccentricity: 0.0001693
inclination: 51.6451°
perigee height: 417 km
apogee height: 420 km
right ascension of ascending node: 61.8678°
argument of perigee: 61.1977°
revolutions per day: 15.49334095
mean anomaly at epoch: 82.9655°
orbit number at epoch: 25227

The dashed part of the orbit path shows where the satellite is in the earth's shadow,  

DLR